Regional Weather Roundup
Issued by NWS Little Rock, AR

Home | Current Version | Previous Version | Graphics & Text | Print | Product List | Glossary On
Versions: 1 2 3 4 5 6 7 8 9 10 11 12 13 14 15 16 17 18 19 20 21 22 23 24 25 26 27 28 29 30 31 32 33 34 35 36 37 38 39 40 41 42 43 44 45 46 47 48 49 50
803
ASUS44 KLZK 231212
RWRLZK

WEATHER ROUNDUP FOR ARKANSAS
NATIONAL WEATHER SERVICE LITTLE ROCK AR
600 AM CST MON JAN 23 2017

NOTE: "FAIR" INDICATES FEW OR NO CLOUDS BELOW 12,000 FEET WITH NO
SIGNIFICANT WEATHER AND/OR OBSTRUCTIONS TO VISIBILITY.

ARZ001-003-010-029-231300-
NORTHWEST ARKANSAS

CITY           SKY/WX    TMP DP  RH WIND       PRES   REMARKS
FAYETTEVILLE   CLOUDY    36  34  92 N6        29.88S
6HR MIN TEMP:  35; 6HR MAX TEMP:  37;

FORT SMITH     CLEAR     35  31  85 W10       29.92R WCI  27
6HR MIN TEMP:  35; 6HR MAX TEMP:  42;

HARRISON       PTCLDY    36  35  96 NW8       29.84F
6HR MIN TEMP:  36; 6HR MAX TEMP:  38; 6HR PCP:  0.01;

BENTONVILLE    CLOUDY   N/A N/A N/A N7        29.88F
ROGERS         CLOUDY    37  34  89 N6        29.88R
6HR MIN TEMP:  35; 6HR MAX TEMP:  37;

SILOAM SPGS    CLOUDY    36  32  87 N6        29.89R
6HR MIN TEMP:  34; 6HR MAX TEMP:  37;

HIGHFILL       CLOUDY    37  35  92 N7        29.88S
6HR MIN TEMP:  34; 6HR MAX TEMP:  38;

SPRINGDALE     CLOUDY    37  34  87 N7        29.89
$$

ARZ004-005-016-231300-
NORTH CENTRAL ARKANSAS

CITY           SKY/WX    TMP DP  RH WIND       PRES   REMARKS
BATESVILLE     CLOUDY    43  34  70 W9G22     29.82R
6HR MIN TEMP:  41; 6HR MAX TEMP:  46;

FLIPPIN        CLOUDY    41  32  70 NW9       29.83R
6HR MIN TEMP:  39; 6HR MAX TEMP:  43;

MTN HOME       CLOUDY    40  35  83 N8        29.84R
6HR MIN TEMP:  39; 6HR MAX TEMP:  40;

$$

ARZ040-041-231300-
WEST CENTRAL ARKANSAS

CITY           SKY/WX    TMP DP  RH WIND       PRES   REMARKS
MENA           PTCLDY    39  37  93 W5        29.87S
MOUNT IDA      MOCLDY    39  33  79 NW5       29.83R
6HR MIN TEMP:  38; 6HR MAX TEMP:  48;

$$

ARZ009-017-025-026-028-231300-
NORTHEAST ARKANSAS

CITY           SKY/WX    TMP DP  RH WIND       PRES   REMARKS
CORNING        MIX PCPN  43  36  75 NW16G24   29.77R
JONESBORO      CLEAR     42  36  79 NW14G23   29.75R
6HR MIN TEMP:  42; 6HR MAX TEMP:  49;

NEWPORT        CLOUDY    43  37  79 NW22      29.79R
6HR MIN TEMP:  42; 6HR MAX TEMP:  46;

WALNUT RIDGE   CLOUDY    43  34  70 NW18G25   29.78R
6HR MIN TEMP:  41; 6HR MAX TEMP:  46;

BLYTHEVILLE    CLEAR     42  37  82 NW18      29.72R
6HR MIN TEMP:  42; 6HR MAX TEMP:  50;

$$

ARZ022-023-033-042-044-231300-
CENTRAL ARKANSAS

CITY           SKY/WX    TMP DP  RH WIND       PRES   REMARKS
LITTLE ROCK    PTCLDY    40  35  83 NW15      29.82R
6HR MIN TEMP:  40; 6HR MAX TEMP:  49;

N LITTLE ROCK    N/A     40  35  83 N9G17     29.84R
6HR MIN TEMP:  40; 6HR MAX TEMP:  49;

JACKSONVILLE   CLOUDY    43  37  79 NW9       29.80R
6HR MIN TEMP:  42; 6HR MAX TEMP:  50;

SEARCY         CLOUDY    43  37  79 VRB3G17   29.83R
6HR MIN TEMP:  42; 6HR MAX TEMP:  49;

HOT SPRINGS    PTCLDY    39  33  79 VRB5      29.84R
6HR MIN TEMP:  39; 6HR MAX TEMP:  50;

RUSSELLVILLE   MOCLDY    39  34  82 W6        29.85R
6HR MIN TEMP:  39; 6HR MAX TEMP:  47;

CLINTON        CLOUDY    43  36  75 NW9G15    29.83S
$$

ARZ036-231300-
EAST ARKANSAS

CITY           SKY/WX    TMP DP  RH WIND       PRES   REMARKS
WEST MEMPHIS   CLEAR     42  39  89 N7G20     29.74R
6HR MIN TEMP:  42; 6HR MAX TEMP:  50;

$$

ARZ050-053-066-070-073-231300-
SOUTHWEST ARKANSAS

CITY           SKY/WX    TMP DP  RH WIND       PRES   REMARKS
ARKADELPHIA    FAIR      40  34  79 N7        29.85
6HR MIN TEMP:  40; 6HR MAX TEMP:  51;

CAMDEN         CLEAR     43  36  75 NW9       29.83R
TEXARKANA      CLEAR     39  35  86 NW13      29.87R
6HR MIN TEMP:  39; 6HR MAX TEMP:  50;

EL DORADO        N/A    N/A N/A N/A MISG      29.83R
DE QUEEN       CLEAR     34  33  96 W5        29.87R WCI  30
6HR MIN TEMP:  34; 6HR MAX TEMP:  49;

$$

ARZ056-057-069-231300-
SOUTHEAST ARKANSAS

CITY           SKY/WX    TMP DP  RH WIND       PRES   REMARKS
PINE BLUFF     CLEAR     45  38  76 NW13      29.81R
6HR MIN TEMP:  45; 6HR MAX TEMP:  52;

STUTTGART      MOCLDY    43  32  65 NW17G23   29.80R
6HR MIN TEMP:  43; 6HR MAX TEMP:  50;

MONTICELLO     CLEAR     47  40  76 NW9       29.79R
6HR MIN TEMP:  47; 6HR MAX TEMP:  54;


$$






USA.gov is the U.S. government's official web portal to all federal, state and local government web resources and services.